sat.trackr.live / text

‹ back to catalog

STARLINK-3176

NORAD 51106 · 2022-005C

PAYLOAD ACTIVE UNKNOWN

§ Identity

Operator
Country
US
Launch date
2022-01-19
Launch site
AFETR
Launch vehicle
Mass (kg)
RCS (m²)

Purposes: comms

External: N2YO · Heavens-Above · Gunter

§ Orbital elements

Epoch: 2026-05-24T20:49:35.061024Z

Period
95.44 min
Inclination
53.2146°
Eccentricity
0.0001593
Mean motion
15.08836135 rev/d
Perigee alt
538.7 km
Apogee alt
540.9 km
Semi-major
6,917.9 km
B*
4.4721e-5
RAAN
307.1424°
Arg perigee
87.9034°
Mean anomaly
272.2141°
Rev number
24,037

§ Raw data

STARLINK-31761 51106U 22005C   26144.86776691  .00000424  00000+0  44721-4 0  99902 51106  53.2146 307.1424 0001593  87.9034 272.2141 15.08836135240371

JSON: /api/v1/satellites/51106 · /tle

For live sub-satellite position, see the globe view (requires WebGL).

§ Visibility from observer

Set your observer location to see the next 7 days of passes ≥ 10°. The values pass through the URL so the page stays shareable.

No JS? Fill the form by hand. The geolocation button needs JavaScript.